[[{"header":{"parameterUnit":"m.s-1","parameterCategory":1,"la1":30.2991,"la2":30.254,"lo1":-89.0895,"lo2":-89.0444,"dy":0.0017,"dx":0.0017,"nx":28,"ny":28,"refTime":"2024-12-18T09:00:00:Z","depth":0,"parameterNumber":2,"parameterNumberName":"U-component_of_WINDS"},"data":[0,0,0,0,0,0,0,0,0,0,0,0,0,0,0,0,0,0,0,0,0,0,0,0,0,0,0,0,0,0,0,0,0,0,0,0,0,0,0,0,0,0,0,0,0,0,0,0,0,0,0,0,0,0,0,0,0,0,-1.1415,-1.1415,0,-1.1355,-1.1354,-1.1354,-1.1274,-1.1273,-1.1272,-1.1271,-1.1209,-1.1209,-1.1208,0,0,0,0,0,0,0,0,0,0,0,0,0,-1.1463,-1.1462,-1.1415,-1.1415,-1.1414,-1.1355,-1.1354,-1.1353,-1.1275,-1.1273,-1.1272,-1.127,-1.1209,-1.1209,-1.1208,0,0,0,0,0,0,0,0,0,0,0,0,0,-1.1426,-1.1462,-1.1416,-1.1367,-1.1363,-1.1355,-1.1354,-1.1353,-1.1275,-1.1273,-1.1271,-1.1269,-1.1209,-1.1209,-1.1208,-1.1243,0,0,-1.1206,-1.1206,0,0,0,0,0,0,0,0,-1.1428,-1.1425,-1.1375,-1.1371,-1.1365,-1.132,-1.1348,-1.1316,-1.1276,-1.1308,-1.1271,-1.1268,-1.1248,-1.1244,-1.1237,-1.124,-1.1237,-1.1206,-1.1206,-1.1205,-1.1205,0,0,0,0,0,0,0,-1.1431,-1.1427,-1.1391,-1.1375,-1.1369,-1.1349,-1.1342,-1.1342,-1.129,-1.1305,-1.1299,-1.1293,-1.1244,-1.1237,-1.1235,-1.1236,-1.1206,-1.1205,-1.1205,-1.1205,-1.1265,-1.1267,0,0,0,0,0,0,-1.1441,-1.1429,-1.1393,-1.139,-1.1393,-1.135,-1.1342,-1.1337,-1.1289,-1.128,-1.1295,-1.129,-1.1239,-1.1235,-1.1232,-1.1269,-1.1205,-1.1205,-1.1204,-1.1263,-1.1266,-1.1268,0,0,0,0,0,0,-1.1442,-1.1438,-1.1396,-1.1408,-1.1401,-1.1351,-1.1346,-1.1337,-1.1329,-1.1282,-1.1272,-1.1297,-1.1238,-1.1233,-1.1241,-1.1266,-1.1204,-1.1204,-1.1261,-1.1264,-1.1267,-1.1345,0,0,0,0,0,0,-1.1444,-1.1439,-1.1452,-1.1409,-1.1401,-1.1406,-1.1348,-1.1337,-1.1328,-1.1321,-1.1281,-1.1273,-1.1236,-1.1242,-1.124,-1.1264,-1.1203,-1.1258,-1.1262,-1.1266,-1.134,-1.135,-1.1359,0,0,0,0,0,-1.1446,-1.1476,-1.1453,-1.1449,-1.1415,-1.1407,-1.1403,-1.1359,-1.1331,-1.1343,-1.1313,-1.1274,-1.1264,-1.1244,-1.1241,-1.1265,-1.1257,-1.1261,-1.1266,-1.1335,-1.1348,-1.1359,0,0,0,0,0,0,-1.1523,-1.147,-1.1443,-1.1461,-1.1439,-1.1394,-1.1408,-1.1374,-1.136,-1.1354,-1.1301,-1.1293,-1.1307,-1.1287,-1.1265,-1.1296,-1.1255,-1.1259,-1.1309,-1.132,-1.133,-1.1334,-1.1203,0,0,0,0,0,-1.1543,-1.1541,-1.1494,-1.1514,-1.1504,-1.1458,-1.1453,-1.1422,-1.1397,-1.1388,-1.1358,-1.1335,-1.1327,-1.1323,-1.1312,-1.1337,-1.1327,-1.1352,-1.1362,-1.137,-1.1374,-1.1385,-1.1395,-1.1283,-1.1283,-1.1283,0,0,-1.1582,-1.1553,-1.1554,-1.1529,-1.1508,-1.1507,-1.1451,-1.1452,-1.1451,-1.1388,-1.1393,-1.1371,-1.1342,-1.1358,-1.1364,-1.1342,-1.1403,-1.1376,-1.1382,-1.1382,-1.139,-1.1401,-1.1411,-1.1286,-1.1285,-1.1285,0,0,-1.1654,-1.1631,-1.1645,-1.1626,-1.1596,-1.1565,-1.1569,-1.1529,-1.1511,-1.1516,-1.1469,-1.1467,-1.1453,-1.1435,-1.1424,-1.149,-1.1453,-1.1488,-1.1538,-1.1549,-1.1558,-1.1566,-1.1588,-1.1597,-1.1492,-1.1492,-1.1492,0,-1.1706,-1.1703,-1.1657,-1.1661,-1.1651,-1.1594,-1.1608,-1.1592,-1.156,-1.1554,-1.153,-1.1513,-1.149,-1.1501,-1.1517,-1.151,-1.1512,-1.1491,-1.156,-1.1568,-1.1574,-1.1595,-1.1604,-1.1497,-1.1496,-1.1496,-1.1495,0,-1.1769,-1.1767,-1.1782,-1.1753,-1.1745,-1.1754,-1.1709,-1.1707,-1.1677,-1.1649,-1.1654,-1.1625,-1.1607,-1.1608,-1.1578,-1.1615,-1.1602,-1.157,-1.1527,-1.159,-1.1609,-1.1616,-1.1503,-1.1501,-1.15,-1.1499,0,0,-1.1886,-1.1832,-1.1838,-1.1824,-1.1787,-1.1785,-1.1792,-1.1775,-1.1774,-1.1754,-1.1758,-1.1749,-1.1719,-1.1707,-1.1675,-1.1685,-1.1738,-1.1652,-1.165,-1.1668,-1.1776,-1.18,-1.181,-1.1715,-1.1716,-1.1717,-1.1778,0,-1.195,-1.1958,-1.1917,-1.1936,-1.1933,-1.188,-1.1886,-1.1864,-1.1839,-1.1833,-1.1805,-1.1798,-1.176,-1.1752,-1.176,-1.173,-1.1759,-1.1725,-1.1717,-1.1718,-1.1725,-1.182,-1.1844,-1.1903,-1.1785,-1.1786,-1.1787,0,-1.2025,-1.2009,-1.2028,-1.199,-1.1988,-1.1994,-1.1975,-1.197,-1.1945,-1.1925,-1.1912,-1.1876,-1.1879,-1.184,-1.1844,-1.1822,-1.1817,-1.1802,-1.1803,-1.18,-1.1756,-1.1818,-1.1921,-1.193,-1.1799,-1.1798,-1.1797,0,-1.2108,-1.2092,-1.21,-1.209,-1.2047,-1.2052,-1.2034,-1.2007,-1.1999,-1.1983,-1.1978,-1.1963,-1.1954,-1.1943,-1.1904,-1.1878,-1.1913,-1.187,-1.1897,-1.1898,-1.1905,-1.1905,-1.2008,-1.1904,-1.1904,-1.1903,-1.1903,0,-1.2182,-1.2195,-1.2137,-1.2142,-1.2156,-1.2109,-1.2124,-1.2101,-1.2077,-1.2077,-1.203,-1.2031,-1.1979,-1.1975,-1.1944,-1.1952,-1.1949,-1.1933,-1.1925,-1.1937,-1.1939,-1.1932,-1.1926,-1.1906,-1.1905,-1.1905,-1.1904,0,-1.2276,-1.2238,-1.2244,-1.2202,-1.2192,-1.2204,-1.2168,-1.2172,-1.2144,-1.2144,-1.2142,-1.2098,-1.209,-1.205,-1.2032,-1.2012,-1.2031,-1.2014,-1.2039,-1.2033,-1.2062,-1.206,-1.2163,-1.2174,-1.2064,-1.2066,-1.2067,0,-1.2326,-1.2335,-1.2294,-1.2291,-1.2275,-1.2271,-1.2263,-1.2218,-1.2212,-1.2184,-1.2191,-1.2179,-1.2167,-1.2157,-1.2124,-1.211,-1.2093,-1.213,-1.209,-1.2102,-1.2092,-1.2092,-1.2092,-1.2138,-1.214,-1.2141,-1.2142,0,-1.2417,-1.2398,-1.2389,-1.2373,-1.2365,-1.2351,-1.2333,-1.2334,-1.2283,-1.2279,-1.2271,-1.2262,-1.2244,-1.2233,-1.2214,-1.2196,-1.2161,-1.2155,-1.216,-1.2172,-1.2186,-1.2178,-1.2061,-1.2152,-1.2151,-1.215,-1.215,-1.2149,-1.249,-1.2495,-1.2468,-1.2459,-1.2442,-1.2427,-1.2428,-1.24,-1.2392,-1.2374,-1.2349,-1.2344,-1.2318,-1.2289,-1.2273,-1.2269,-1.2249,-1.2257,-1.2258,-1.2261,-1.2267,-1.2188,-1.2265,-1.2265,-1.2265,-1.2264,-1.2264,0,-1.2578,-1.2558,-1.2551,-1.2528,-1.2522,-1.249,-1.2469,-1.2465,-1.2462,-1.2441,-1.243,-1.2421,-1.241,-1.2376,-1.2362,-1.2365,-1.2349,-1.2363,-1.2362,-1.2358,-1.2286,-1.2282,-1.2376,-1.2376,-1.2376,-1.2376,-1.2376,-1.2376,-1.2623,-1.2631,-1.2609,-1.2607,-1.2587,-1.2582,-1.2573,-1.2559,-1.2542,-1.2533,-1.2524,-1.2502,-1.2476,-1.246,-1.2449,-1.2439,-1.2436,-1.2455,-1.244,-1.2374,-1.2363,-1.2353,-1.2349,-1.2455,-1.2455,-1.2512,-1.2513,-1.2513]},{"header":{"parameterUnit":"m.s-1","parameterCategory":1,"la1":30.2991,"la2":30.254,"lo1":-89.0895,"lo2":-89.0444,"dy":0.0017,"dx":0.0017,"nx":28,"ny":28,"refTime":"2024-12-18T09:00:00:Z","depth":0,"parameterNumber":3,"parameterNumberName":"V-component_of_WINDS"},"data":[0,0,0,0,0,0,0,0,0,0,0,0,0,0,0,0,0,0,0,0,0,0,0,0,0,0,0,0,0,0,0,0,0,0,0,0,0,0,0,0,0,0,0,0,0,0,0,0,0,0,0,0,0,0,0,0,0,0,-0.4542,-0.4542,0,-0.4593,-0.4594,-0.4595,-0.4622,-0.4622,-0.4622,-0.4622,-0.4676,-0.4677,-0.4678,0,0,0,0,0,0,0,0,0,0,0,0,0,-0.4465,-0.4466,-0.4542,-0.4542,-0.4543,-0.4593,-0.4594,-0.4595,-0.4622,-0.4622,-0.4622,-0.4622,-0.4675,-0.4677,-0.4678,0,0,0,0,0,0,0,0,0,0,0,0,0,-0.4506,-0.4467,-0.4541,-0.4562,-0.4565,-0.4593,-0.4594,-0.4595,-0.4622,-0.4622,-0.4622,-0.4622,-0.4675,-0.4677,-0.4679,-0.469,0,0,-0.4685,-0.4686,0,0,0,0,0,0,0,0,-0.4504,-0.4509,-0.4559,-0.4561,-0.4564,-0.4601,-0.4587,-0.4627,-0.4622,-0.46,-0.4622,-0.4622,-0.4651,-0.4655,-0.4664,-0.4693,-0.4695,-0.4685,-0.4686,-0.4687,-0.4688,0,0,0,0,0,0,0,-0.4501,-0.4507,-0.4562,-0.4559,-0.4562,-0.4569,-0.4575,-0.4595,-0.4625,-0.4602,-0.4604,-0.461,-0.4652,-0.4662,-0.4666,-0.4696,-0.4685,-0.4687,-0.4688,-0.4689,-0.4735,-0.4735,0,0,0,0,0,0,-0.4495,-0.4504,-0.456,-0.4564,-0.4533,-0.457,-0.4577,-0.4589,-0.4624,-0.463,-0.461,-0.4611,-0.4659,-0.4663,-0.4668,-0.4683,-0.4687,-0.4689,-0.469,-0.4735,-0.4735,-0.4735,0,0,0,0,0,0,-0.4493,-0.4499,-0.4558,-0.4534,-0.4542,-0.4572,-0.4585,-0.459,-0.46,-0.463,-0.4636,-0.4615,-0.4659,-0.4665,-0.4684,-0.4685,-0.469,-0.4692,-0.4735,-0.4735,-0.4735,-0.4714,0,0,0,0,0,0,-0.449,-0.4499,-0.4503,-0.4534,-0.4544,-0.4574,-0.4585,-0.4591,-0.4604,-0.4606,-0.4636,-0.4641,-0.466,-0.4681,-0.4686,-0.4688,-0.4694,-0.4735,-0.4735,-0.4735,-0.4715,-0.4713,-0.4712,0,0,0,0,0,-0.4488,-0.4496,-0.4504,-0.451,-0.455,-0.4574,-0.4579,-0.46,-0.4604,-0.4609,-0.4628,-0.464,-0.4684,-0.4683,-0.4689,-0.4692,-0.4735,-0.4735,-0.4735,-0.4715,-0.4714,-0.4712,0,0,0,0,0,0,-0.4465,-0.45,-0.4509,-0.4528,-0.4547,-0.4578,-0.4586,-0.4597,-0.4617,-0.4618,-0.4643,-0.4649,-0.4666,-0.4681,-0.4678,-0.4704,-0.4711,-0.4712,-0.4694,-0.4692,-0.4691,-0.4687,-0.4695,0,0,0,0,0,-0.4462,-0.4478,-0.4508,-0.4521,-0.4531,-0.4556,-0.4567,-0.4581,-0.4603,-0.4612,-0.4632,-0.4652,-0.4671,-0.4682,-0.4701,-0.4717,-0.4723,-0.4722,-0.472,-0.4719,-0.472,-0.4728,-0.4728,-0.4735,-0.4735,-0.4735,0,0,-0.4456,-0.4477,-0.4486,-0.4517,-0.4534,-0.455,-0.4563,-0.458,-0.4592,-0.4614,-0.4633,-0.4649,-0.4673,-0.469,-0.4699,-0.4703,-0.4719,-0.4719,-0.4718,-0.4719,-0.4728,-0.4728,-0.4727,-0.4735,-0.4735,-0.4735,0,0,-0.4454,-0.4471,-0.4484,-0.4501,-0.4526,-0.4543,-0.4546,-0.4575,-0.4586,-0.4605,-0.4622,-0.4636,-0.4668,-0.4684,-0.4696,-0.4698,-0.4711,-0.4704,-0.4697,-0.4705,-0.4704,-0.4704,-0.4704,-0.4704,-0.4704,-0.4704,-0.4704,0,-0.4443,-0.4468,-0.4489,-0.4505,-0.4518,-0.4538,-0.455,-0.4565,-0.4596,-0.4604,-0.4608,-0.4647,-0.4665,-0.4686,-0.4686,-0.4696,-0.4699,-0.4701,-0.4703,-0.4703,-0.4703,-0.4703,-0.4703,-0.4703,-0.4703,-0.4704,-0.4704,0,-0.4454,-0.4471,-0.4478,-0.4506,-0.4519,-0.4533,-0.4556,-0.4568,-0.458,-0.4596,-0.4615,-0.4637,-0.466,-0.4666,-0.4678,-0.4688,-0.469,-0.4698,-0.4705,-0.4701,-0.4701,-0.4702,-0.4702,-0.4702,-0.4703,-0.4703,0,0,-0.444,-0.4478,-0.448,-0.4493,-0.4522,-0.4535,-0.4549,-0.4571,-0.458,-0.46,-0.4612,-0.4638,-0.4645,-0.4659,-0.4673,-0.468,-0.468,-0.4688,-0.4689,-0.4685,-0.4691,-0.4685,-0.4685,-0.4688,-0.4688,-0.4688,-0.4689,0,-0.4441,-0.4468,-0.4487,-0.4506,-0.4522,-0.454,-0.4553,-0.4572,-0.4587,-0.4602,-0.4618,-0.4635,-0.4644,-0.4652,-0.466,-0.4678,-0.4681,-0.4678,-0.4699,-0.47,-0.4693,-0.4686,-0.4679,-0.468,-0.469,-0.469,-0.469,0,-0.4447,-0.4466,-0.4486,-0.4512,-0.452,-0.453,-0.4552,-0.4566,-0.4587,-0.4597,-0.4612,-0.4627,-0.4642,-0.4647,-0.4669,-0.4666,-0.4676,-0.4686,-0.4686,-0.4689,-0.4695,-0.4688,-0.468,-0.468,-0.4691,-0.4691,-0.4691,0,-0.4434,-0.4464,-0.448,-0.4491,-0.4521,-0.4528,-0.4542,-0.4563,-0.4575,-0.4593,-0.4601,-0.462,-0.4631,-0.4646,-0.4665,-0.4668,-0.4684,-0.4692,-0.4693,-0.4693,-0.4696,-0.4696,-0.469,-0.4702,-0.4702,-0.4702,-0.4702,0,-0.4434,-0.4446,-0.4475,-0.4485,-0.4498,-0.4519,-0.4532,-0.4547,-0.4565,-0.4578,-0.4596,-0.4607,-0.4632,-0.4646,-0.4661,-0.4676,-0.4681,-0.469,-0.4693,-0.4688,-0.4687,-0.4695,-0.4695,-0.4702,-0.4702,-0.4702,-0.4702,0,-0.4423,-0.4442,-0.4461,-0.4488,-0.4495,-0.4504,-0.4527,-0.4537,-0.4553,-0.4568,-0.4573,-0.4598,-0.4615,-0.4636,-0.466,-0.467,-0.4684,-0.469,-0.4677,-0.4679,-0.4679,-0.4679,-0.4678,-0.4679,-0.4691,-0.4691,-0.469,0,-0.4421,-0.4431,-0.4459,-0.4468,-0.4481,-0.4496,-0.4508,-0.4529,-0.454,-0.4564,-0.4571,-0.459,-0.4606,-0.4633,-0.4653,-0.4672,-0.4678,-0.4676,-0.4681,-0.4675,-0.4678,-0.4677,-0.4678,-0.4675,-0.4675,-0.4675,-0.4675,0,-0.4417,-0.4426,-0.4442,-0.4461,-0.4475,-0.4491,-0.4508,-0.4514,-0.4538,-0.455,-0.4568,-0.4581,-0.4605,-0.4624,-0.4644,-0.4658,-0.467,-0.4673,-0.4674,-0.4669,-0.4661,-0.4665,-0.4673,-0.4673,-0.4673,-0.4673,-0.4673,-0.4673,-0.4411,-0.442,-0.444,-0.4457,-0.4472,-0.4487,-0.4497,-0.4513,-0.4529,-0.455,-0.4561,-0.4579,-0.4599,-0.4628,-0.4641,-0.4655,-0.4659,-0.4661,-0.4661,-0.4661,-0.466,-0.4658,-0.4658,-0.4659,-0.4659,-0.4659,-0.4659,0,-0.4407,-0.4421,-0.4436,-0.4459,-0.4472,-0.4482,-0.45,-0.4511,-0.4526,-0.4543,-0.4559,-0.4579,-0.4596,-0.4617,-0.4636,-0.4643,-0.4649,-0.4647,-0.4647,-0.4649,-0.4655,-0.4652,-0.4642,-0.4642,-0.4642,-0.4642,-0.4642,-0.4642,-0.4407,-0.4422,-0.4433,-0.4455,-0.4469,-0.4486,-0.4496,-0.451,-0.4524,-0.4545,-0.456,-0.4573,-0.4591,-0.4611,-0.4627,-0.4633,-0.4639,-0.4635,-0.4642,-0.4648,-0.4649,-0.465,-0.4648,-0.4637,-0.4637,-0.4636,-0.4636,-0.4636]}]]